Weather History for Barking Sands, HI

Change the Weather History Date:

Sunday, December 9, 2012

  Actual Average Record
Temperature  
Mean Temperature 76 °F -  
Max Temperature 82 °F 81 °F 85 °F (1961)
Min Temperature 69 °F 63 °F 58 °F (1952)
Cooling Degree Days 10    
Growing Degree Days 26 (Base 50)    
Moisture  
Dew Point 74 °F    
Average Humidity 91    
Maximum Humidity 100    
Minimum Humidity 74    
Precipitation  
Precipitation 0.00 in - - ()
Sea Level Pressure  
Sea Level Pressure 29.93 in    
Wind  
Wind Speed 4 mph (East)    
Max Wind Speed 10 mph    
Max Gust Speed 21 mph    
Visibility 10 miles    
Events      
Averages and records for this station are not official NWS values.
T = Trace of Precipitation, MM = Missing Value Source: NWS Daily Summary

Daily Weather History Graph

Daily Weather History Graph

Search for Another Location

Airport:

Trip Planner

Search our weather history database for the weather conditions in past years. The results will help you decide how hot, cold, wet, or windy it might be!

Date:

Astronomy

Dec. 09, 2012 Rise Set
Actual Time 7:07 AM HST 5:56 PM HST
Civil Twilight 6:42 AM HST 6:20 PM HST
Nautical Twilight 6:15 AM HST 6:48 PM HST
Astronomical Twilight 5:47 AM HST 7:16 PM HST
Moon 3:13 AM HST (12/9) 2:54 PM HST (12/9)
Length of Visible Light 11h 37m
Length of Day
10h 49m
Waning Crescent, 17% of the Moon is Illuminated
Dec 9
Waning Crescent
Dec 12
New
Dec 19
First Quarter
Dec 28
Full
Jan 4
Last Quarter

Hourly Weather History & Observations

Time (HST) Temp. Heat Index Dew Point Humidity Pressure Visibility Wind Dir Wind Speed Gust Speed Precip Events Conditions
12:56 AM 73.0 °F - 70.0 °F 90% 29.95 in 10.0 mi SSE 4.6 mph - N/A   Clear
1:56 AM 72.0 °F - 64.9 °F 78% 29.94 in 10.0 mi Calm Calm - N/A   Clear
2:56 AM 73.0 °F - - N/A% 29.92 in 10.0 mi SSE 4.6 mph - N/A   Clear
3:56 AM 73.9 °F - 72.0 °F 93% 29.91 in 10.0 mi SE 4.6 mph - N/A   Clear
4:56 AM 72.0 °F - 72.0 °F 100% 29.92 in 10.0 mi SSE 3.5 mph - N/A   Clear
5:56 AM 71.1 °F - 68.0 °F 90% 29.93 in 10.0 mi Calm Calm - N/A   Clear
6:56 AM 69.1 °F - - N/A% 29.94 in 10.0 mi East 3.5 mph - N/A   Clear
7:56 AM 71.1 °F - 71.1 °F 100% 29.95 in 10.0 mi Calm Calm - N/A   Clear
8:56 AM 79.0 °F - 73.0 °F 82% 29.95 in 10.0 mi Calm Calm - N/A   Clear
9:56 AM 81.0 °F 87.9 °F 77.0 °F 88% 29.96 in 10.0 mi North 6.9 mph - N/A   Clear
10:56 AM 81.0 °F 89.2 °F 79.0 °F 94% 29.94 in 10.0 mi Variable 4.6 mph - N/A   Scattered Clouds
11:56 AM 81.0 °F 88.6 °F 78.1 °F 91% 29.93 in 10.0 mi NNW 10.4 mph - N/A   Partly Cloudy
12:56 PM 80.1 °F 87.4 °F 80.1 °F 100% 29.91 in 10.0 mi North 8.1 mph - N/A   Scattered Clouds
1:56 PM 81.0 °F 87.9 °F 77.0 °F 88% 29.88 in 10.0 mi NW 8.1 mph - N/A   Clear
2:56 PM 81.0 °F 86.7 °F 75.0 °F 82% 29.87 in 10.0 mi West 10.4 mph - N/A   Clear
3:56 PM 80.1 °F 85.8 °F 77.0 °F 90% 29.88 in 10.0 mi North 5.8 mph - N/A   Clear
4:56 PM 82.0 °F 87.4 °F 73.0 °F 74% 29.91 in 10.0 mi SE 10.4 mph 20.7 mph N/A   Clear
5:56 PM 79.0 °F - 75.0 °F 88% 29.92 in 10.0 mi NE 3.5 mph - N/A   Partly Cloudy
6:56 PM 75.9 °F - 75.9 °F 100% 29.93 in 10.0 mi SE 6.9 mph - N/A   Mostly Cloudy
7:56 PM 75.0 °F - 73.9 °F 96% 29.95 in 10.0 mi SSE 6.9 mph - N/A   Scattered Clouds
8:56 PM 73.9 °F - 71.1 °F 91% 29.96 in 10.0 mi SSE 8.1 mph - N/A   Clear
9:56 PM 73.0 °F - 71.1 °F 93% 29.99 in 10.0 mi East 5.8 mph - N/A   Clear
10:56 PM 73.0 °F - 72.0 °F 96% 30.00 in 10.0 mi Calm Calm - N/A   Clear
11:56 PM 71.1 °F - 71.1 °F 100% 29.99 in 10.0 mi Calm Calm - N/A   Clear